896  
ASUS43 KEAX 211910  
RWREAX  
 
WEATHER ROUNDUP FOR EASTERN KANSAS AND NORTHWEST MISSOURI  
NATIONAL WEATHER SERVICE KANSAS CITY/PLEASANT HILL MO  
100 PM CST TUE NOV 21 2017  
 
KSZ040-057-103>105-MOZ028-029-037-043-212000-   
..KANSAS CITY METROPOLITAN AREA
 
 
 
CITY SKY/WX TMP DP RH WIND PRES REMARKS
 
K.C. INTL MOSUNNY 50 19 29 N18G30 30.11R  
K.C. DOWNTOWN SUNNY 51 21 30 N20G28 30.11R  
LEES SUMMIT SUNNY 50 24 36 N20G30 30.11R  
OLATHE - IXD SUNNY 50 24 36 N23G31 30.11R  
OLATHE - OJC SUNNY 49 22 34 N20G29 30.10R  
LAWRENCE SUNNY 51 19 28 NW20 30.14R  
 

 
 
MOZ001>008-011>017-020>025-030>033-038>040-044>046-053-054-212000-   
..NORTHERN AND CENTRAL MISSOURI
 
 
 
CITY SKY/WX TMP DP RH WIND PRES REMARKS
 
ST. JOSEPH SUNNY 45 6 20 N30G39 30.16R  
MOSBY N/A 50 19 29 N16G24 30.11R  
WARRENSBURG MOSUNNY 52 28 40 NW14G22 30.08R  
WHITEMAN AFB MOSUNNY 51 29 41 N17G24 30.03R  
CLINTON CLOUDY 54 32 43 MISG 30.06R  
SEDALIA CLOUDY 50 31 48 N18 30.08R  
WARSAW NOT AVBL  
CHILLICOTHE N/A 49 17 28 NW15G24 30.09R  
KIRKSVILLE CLOUDY 46 20 35 N18 30.05R  
 

 
 
MOZ041-047>049-056>058-063>065-088>090-097-212000-   
..EASTERN AND SOUTHERN MISSOURI
 
 
 
CITY SKY/WX TMP DP RH WIND PRES REMARKS
 
ST. LOUIS INTL CLOUDY 56 35 45 W8 29.97R  
SPIRIT OF STL PTSUNNY 57 34 41 N8 29.96R  
COLUMBIA CLOUDY 52 30 43 N16 30.02R  
JEFFERSON CITY CLOUDY 54 30 40 N7 30.01R  
ROLLA MOSUNNY 56 33 42 N9 30.00R  
OSAGE BEACH CLOUDY 54 32 43 N6 30.03R  
SPRINGFIELD PTSUNNY 55 36 48 N12 30.00R  
BRANSON PTSUNNY 57 37 47 N6 29.99S  
JOPLIN SUNNY 57 36 45 NE13G22 30.03F  
WEST PLAINS SUNNY 60 34 37 N6 29.97F  
 

 
 
IAZ060-094-KSZ022-034>040-054-083-096-NEZ052-066-093-212000-    
..KANSAS...SOUTHEAST NEBRASKA AND IOWA
 
 
 
CITY SKY/WX TMP DP RH WIND PRES REMARKS
 
TOPEKA SUNNY 50 19 29 NW23G31 30.17R  
MANHATTAN SUNNY 48 12 23 N14G26 30.22R  
EMPORIA SUNNY 51 26 37 N22G32 30.15R  
CHANUTE SUNNY 57 33 40 N18G26 30.10R  
WICHITA MOSUNNY 56 30 37 N20G30 30.14R  
OMAHA SUNNY 32 13 45 N24G32 30.25R WCI 19  
LINCOLN SUNNY 35 11 36 N23G31 30.28R WCI 23  
FALLS CITY SUNNY 40 13 33 N21G32 30.19R WCI 30  
LAMONI SUNNY 39 18 42 N17G26 30.11R WCI 30  
DES MOINES MOSUNNY 34 15 46 NW21G33 30.14R WCI 22  
 

 
 
 
 
CLICK HERE TO GO TO PREVIOUS BULLETINS.

The Nexlab MO Page
The Nexlab KS Page Main Text Page